UAE185 OMDB-LEBL

Flight info

Callsign UAE185
Flight time N/A
Altitude 30000
Route ANVIX R401 GIDIS G783 UKRAG L710 DEBAV G652 TOKRA DCT ALROK DCT BOSOB DCT ITRUX Y511 ASMUN/N0503F320 Y511 PMA Z712 WEJ L677 CVO L617 NABSI M872 METRU DCT ARLOS DCT SUBOK/N0485F340 DCT ENEPA DCT BEKIV DCT PAL DCT KAPIL DCT ADAMI DCT ALG DCT GINOX DCT KIFMI DCT ELVOP DCT MUREN/N0490F330 M601 VERSO
Aircraft B77W/H-SDE2E3GHIJ3J5M1P2RWXYZ/LB1D1

Departure

Time 2026-04-22 08:35
Airport Dubai International Airport (OMDB)

Arrival

Time N/A
Airport Josep Tarradellas Barcelona-El Prat Airport (LEBL)
Time Latitude Longitude Altitude Speed Heading
2026-04-22 08:11 25.24662 55.36308 23 ft 0 kts 31°
2026-04-22 08:25 25.24659 55.36306 28 ft 3 kts 31°
2026-04-22 08:25 25.24637 55.36291 32 ft 4 kts 31°
2026-04-22 08:25 25.24618 55.36278 30 ft 4 kts 39°
2026-04-22 08:26 25.24602 55.36256 30 ft 4 kts 78°
2026-04-22 08:26 25.24604 55.36229 30 ft 4 kts 119°
2026-04-22 08:26 25.24617 55.36205 31 ft 4 kts 121°
2026-04-22 08:26 25.24631 55.36179 31 ft 3 kts 121°
2026-04-22 08:27 25.24634 55.36175 31 ft 0 kts 121°
2026-04-22 08:28 25.24633 55.36175 31 ft 1 kts 121°
2026-04-22 08:29 25.24603 55.36230 29 ft 18 kts 121°
2026-04-22 08:29 25.24529 55.36363 27 ft 21 kts 122°
2026-04-22 08:29 25.24456 55.36500 28 ft 21 kts 112°
2026-04-22 08:29 25.24413 55.36650 28 ft 21 kts 114°
2026-04-22 08:30 25.24343 55.36786 28 ft 21 kts 121°
2026-04-22 08:30 25.24268 55.36921 30 ft 21 kts 121°
2026-04-22 08:30 25.24191 55.37055 30 ft 21 kts 122°
2026-04-22 08:30 25.24115 55.37190 29 ft 21 kts 122°
2026-04-22 08:31 25.24040 55.37324 29 ft 21 kts 122°
2026-04-22 08:31 25.23971 55.37462 30 ft 21 kts 106°
2026-04-22 08:31 25.24135 55.37687 29 ft 21 kts 31°
2026-04-22 08:32 25.24257 55.37770 29 ft 21 kts 32°
2026-04-22 08:32 25.24378 55.37856 27 ft 21 kts 34°
2026-04-22 08:32 25.24496 55.37945 30 ft 21 kts 34°
2026-04-22 08:32 25.24615 55.38034 28 ft 21 kts 33°
2026-04-22 08:33 25.24723 55.38108 30 ft 9 kts 31°
2026-04-22 08:33 25.24749 55.38115 31 ft 4 kts 347°
2026-04-22 08:33 25.24767 55.38095 31 ft 4 kts 305°
2026-04-22 08:33 25.24791 55.38051 30 ft 17 kts 301°
2026-04-22 08:34 25.24963 55.37744 30 ft 83 kts 301°
2026-04-22 08:34 25.25379 55.36993 30 ft 148 kts 301°
2026-04-22 08:34 25.26016 55.35843 31 ft 200 kts 301°
2026-04-22 08:34 25.26729 55.34514 553 ft 195 kts 305°
2026-04-22 08:35 25.27449 55.33212 1050 ft 204 kts 305°
2026-04-22 08:35 25.28208 55.31870 1495 ft 209 kts 303°
2026-04-22 08:35 25.28989 55.30482 1840 ft 214 kts 298°
2026-04-22 08:35 25.29324 55.28846 2015 ft 227 kts 257°
2026-04-22 08:36 25.28719 55.27277 2498 ft 219 kts 239°
2026-04-22 08:36 25.28035 55.25807 3173 ft 212 kts 240°
2026-04-22 08:36 25.27384 55.24315 3607 ft 221 kts 241°
2026-04-22 08:36 25.26711 55.22759 4028 ft 226 kts 242°
2026-04-22 08:37 25.26033 55.21177 4514 ft 229 kts 241°
2026-04-22 08:37 25.25333 55.19593 4991 ft 230 kts 234°
2026-04-22 08:37 25.24116 55.18442 5121 ft 240 kts 197°
2026-04-22 08:37 25.22426 55.18337 5405 ft 254 kts 167°
2026-04-22 08:38 25.20813 55.19223 5829 ft 268 kts 141°
2026-04-22 08:38 25.19604 55.20844 6227 ft 280 kts 128°
2026-04-22 08:38 25.18528 55.22661 6744 ft 284 kts 127°
2026-04-22 08:38 25.17459 55.24495 7405 ft 285 kts 127°
2026-04-22 08:39 25.16377 55.26348 8015 ft 288 kts 126°
2026-04-22 08:39 25.15283 55.28218 8600 ft 292 kts 126°
2026-04-22 08:39 25.14168 55.30108 9142 ft 296 kts 126°
2026-04-22 08:39 25.13034 55.32014 9718 ft 299 kts 126°
2026-04-22 08:40 25.11882 55.33945 10233 ft 303 kts 126°
2026-04-22 08:40 25.10714 55.35898 10753 ft 307 kts 126°
2026-04-22 08:40 25.09546 55.37846 11276 ft 310 kts 126°
2026-04-22 08:40 25.08353 55.39843 11829 ft 314 kts 124°
2026-04-22 08:41 25.07192 55.41905 12393 ft 317 kts 123°
2026-04-22 08:41 25.06175 55.44125 12672 ft 335 kts 114°
2026-04-22 08:41 25.05283 55.46585 12825 ft 355 kts 112°
2026-04-22 08:41 25.04349 55.49189 12999 ft 375 kts 113°
2026-04-22 08:42 25.03325 55.51923 13146 ft 395 kts 114°
2026-04-22 08:42 25.02231 55.54748 13513 ft 406 kts 115°
2026-04-22 08:42 25.00911 55.57535 13958 ft 413 kts 122°
2026-04-22 08:42 24.99402 55.60246 14544 ft 416 kts 122°
2026-04-22 08:43 24.97896 55.62976 15213 ft 418 kts 122°
2026-04-22 08:43 24.96401 55.65726 15874 ft 420 kts 122°
2026-04-22 08:43 24.94899 55.68503 16497 ft 423 kts 122°
2026-04-22 08:43 24.93330 55.71258 17109 ft 426 kts 126°
2026-04-22 08:44 24.91600 55.73920 17723 ft 429 kts 128°
2026-04-22 08:44 24.89800 55.76556 18288 ft 432 kts 128°
2026-04-22 08:44 24.87991 55.79209 18814 ft 436 kts 128°
2026-04-22 08:44 24.86183 55.81905 19291 ft 440 kts 128°
2026-04-22 08:45 24.84364 55.84645 19745 ft 445 kts 127°
2026-04-22 08:45 24.82522 55.87406 20208 ft 450 kts 128°
2026-04-22 08:45 24.80617 55.90138 20649 ft 449 kts 134°
2026-04-22 08:45 24.78181 55.92284 20887 ft 452 kts 155°
2026-04-22 08:46 24.75241 55.93474 21382 ft 450 kts 170°
2026-04-22 08:46 24.72148 55.93809 21926 ft 447 kts 184°
2026-04-22 08:46 24.69040 55.93634 22448 ft 448 kts 186°
2026-04-22 08:46 24.65911 55.93471 22883 ft 453 kts 185°
2026-04-22 08:47 24.62776 55.93219 23226 ft 453 kts 193°
2026-04-22 08:47 24.59760 55.92235 23541 ft 452 kts 207°
2026-04-22 08:47 24.57027 55.90552 23944 ft 449 kts 218°
2026-04-22 08:47 24.54665 55.88350 24326 ft 446 kts 225°
2026-04-22 08:48 24.52393 55.86080 24676 ft 449 kts 224°
2026-04-22 08:48 24.50059 55.83778 25051 ft 452 kts 224°
2026-04-22 08:48 24.47699 55.81482 25461 ft 454 kts 224°
2026-04-22 08:48 24.45325 55.79194 25880 ft 455 kts 223°
2026-04-22 08:49 24.42934 55.76900 26270 ft 457 kts 223°
2026-04-22 08:49 24.40530 55.74596 26650 ft 460 kts 223°
2026-04-22 08:49 24.38117 55.72285 27011 ft 462 kts 223°
2026-04-22 08:49 24.35693 55.69957 27371 ft 464 kts 224°
2026-04-22 08:50 24.33267 55.67614 27729 ft 466 kts 224°
2026-04-22 08:50 24.30827 55.65256 28083 ft 468 kts 224°
2026-04-22 08:50 24.28297 55.62995 28390 ft 472 kts 217°
2026-04-22 08:50 24.25469 55.61120 28673 ft 478 kts 210°
2026-04-22 08:51 24.22433 55.59587 28967 ft 483 kts 205°